NUSAT-4 (ADA) (43195 NORAD) Tracking and Keplerian Element Data

This shows tracking and keplerian element data for the satellite.

Feedback or suggestion? Click here.




ElementValue
Catalog43195
NameNUSAT-4 (ADA)
Epoch Orbit2479
Epoch Day196.19446853
Epoch Year2018
RAAN324.5263
Inclination97.355
Eccentricity0.00192
Argument of Perigee55.6652
Mean Anonmoly64.0309
Mean Motion15.23267128
Decay Rate8.55E-06
L11 43195U 18015D 18196.19446853 .00000855 00000-0 38887-4 0 9998
L22 43195 97.3550 324.5263 0019200 55.6652 64.0309 15.23267128 24790

Live tracking and technical data element details for NUSAT-4 (ADA) (NORAD 43195). NUSAT-4 (ADA) can be tracked NOW for your location showing map with azimuth and elevation plus other details from your city location.

Track the satellite on the map from your city or location and see movement details for azimuth, elevation, latitude, longitude, range, height, and movement on the map or in text.







IsCatalogInMostPopularTable: catalog: 43195, numindb: 59
Update: records affected: 1



GetName: 43195 NUSAT-4 (ADA)

Hit Count: updated at: Sun, 15 Jul 2018 23:10:40 GMT